Location: Jetmore Oil Field
(38.1181°N, 99.9337°W)
Time: 08:35:38
(UTC+00:00)

STARLINK-61 - Pass Details

Date: 17 February 2020
Orbit: 506 x 518 km, 53.0° (Epoch: 01 April)

Event Time Altitude Azimuth Distance (km) Brightness Sun altitude
Rises 01:11:46 0° 221° (SW) 2,593 7.9 -11.0°
Reaches altitude 10° 01:13:57 10° 219° (SW) 1,714 6.8 -11.4°
Maximum altitude 01:17:48 70° 136° (SE) 543 3.4 -12.2°
Enters shadow 01:20:45 17° 54° (NE) 1,355 5.1 -12.8°
